�������l�o���
Date,Time,MP-1(��Sv/h),MP-2(��Sv/h),MP-3(��Sv/h),MP-4(��Sv/h),MP-5(��Sv/h),MP-6(��Sv/h),MP-7(��Sv/h),MP-8(��Sv/h),����,����(m/s),���J
2020/03/11,00:00,0.671,0.946,0.642,1.156,0.809,0.400,0.679,0.648,��,7.7,��
2020/03/11,00:10,0.672,0.945,0.642,1.157,0.808,0.399,0.680,0.648,��,5.9,��
2020/03/11,00:20,0.672,0.944,0.642,1.156,0.808,0.399,0.682,0.647,��,4.7,��
2020/03/11,00:30,0.674,0.945,0.642,1.154,0.809,0.399,0.680,0.648,��쐼,4.9,��
2020/03/11,00:40,0.674,0.945,0.643,1.157,0.808,0.399,0.682,0.649,��쐼,3.8,��
2020/03/11,00:50,0.676,0.946,0.642,1.157,0.812,0.400,0.682,0.648,��쐼,2.5,��
2020/03/11,01:00,0.675,0.947,0.642,1.159,0.810,0.398,0.683,0.649,��,2.9,��
2020/03/11,01:10,0.674,0.948,0.643,1.158,0.810,0.400,0.682,0.650,���쐼,5.2,��
2020/03/11,01:20,0.674,0.944,0.644,1.157,0.813,0.398,0.683,0.651,���쐼,4.9,��
2020/03/11,01:30,0.674,0.948,0.644,1.158,0.812,0.398,0.682,0.649,���쐼,5.6,��
2020/03/11,01:40,0.676,0.948,0.643,1.159,0.812,0.398,0.683,0.650,��,5.3,��
2020/03/11,01:50,0.674,0.947,0.644,1.160,0.813,0.399,0.681,0.651,��,5.0,��
2020/03/11,02:00,0.676,0.949,0.644,1.161,0.814,0.398,0.682,0.650,��,4.6,��
2020/03/11,02:10,0.673,0.946,0.645,1.162,0.813,0.399,0.683,0.650,��,6.0,��
2020/03/11,02:20,0.674,0.946,0.645,1.162,0.814,0.399,0.683,0.652,��,7.8,��
2020/03/11,02:30,0.676,0.950,0.645,1.164,0.815,0.399,0.683,0.653,���k��,8.2,��
2020/03/11,02:40,0.676,0.949,0.646,1.163,0.815,0.399,0.684,0.649,��,9.5,��
2020/03/11,02:50,0.677,0.951,0.646,1.163,0.815,0.400,0.683,0.652,��,9.7,��
2020/03/11,03:00,0.676,0.950,0.644,1.166,0.817,0.400,0.684,0.653,��,13.8,��
2020/03/11,03:10,0.675,0.952,0.646,1.167,0.816,0.398,0.683,0.650,��,12.0,��
2020/03/11,03:20,0.677,0.949,0.647,1.168,0.815,0.398,0.683,0.650,��,12.0,��
2020/03/11,03:30,0.678,0.950,0.646,1.168,0.815,0.399,0.683,0.649,��,12.1,��
2020/03/11,03:40,0.678,0.949,0.646,1.170,0.815,0.398,0.684,0.650,��,12.4,��
2020/03/11,03:50,0.678,0.950,0.648,1.170,0.817,0.398,0.684,0.650,��,13.0,��
2020/03/11,04:00,0.677,0.954,0.649,1.169,0.816,0.399,0.683,0.649,��,13.0,��
2020/03/11,04:10,0.678,0.951,0.649,1.170,0.818,0.398,0.685,0.650,��,11.6,��
2020/03/11,04:20,0.679,0.949,0.650,1.171,0.819,0.402,0.685,0.649,��,8.4,��
2020/03/11,04:30,0.679,0.952,0.648,1.172,0.817,0.399,0.686,0.652,��,9.9,��
2020/03/11,04:40,0.679,0.952,0.649,1.171,0.816,0.399,0.686,0.651,��,9.8,��
2020/03/11,04:50,0.679,0.957,0.649,1.169,0.817,0.399,0.685,0.650,��,9.8,��
2020/03/11,05:00,0.681,0.956,0.648,1.175,0.819,0.400,0.686,0.651,��,12.5,��
2020/03/11,05:10,0.679,0.956,0.649,1.172,0.820,0.400,0.686,0.650,���k��,12.0,��
2020/03/11,05:20,0.680,0.957,0.649,1.171,0.821,0.399,0.684,0.651,���k��,12.7,��
2020/03/11,05:30,0.679,0.957,0.651,1.173,0.823,0.399,0.686,0.652,��,13.8,��
2020/03/11,05:40,0.679,0.957,0.648,1.173,0.820,0.400,0.685,0.651,��,14.9,��
2020/03/11,05:50,0.678,0.958,0.648,1.174,0.824,0.398,0.685,0.651,��,12.0,��
2020/03/11,06:00,0.680,0.958,0.649,1.175,0.822,0.400,0.685,0.652,��,12.1,��
2020/03/11,06:10,0.680,0.956,0.650,1.177,0.822,0.400,0.685,0.652,��,13.5,��
2020/03/11,06:20,0.679,0.960,0.648,1.175,0.822,0.398,0.685,0.652,��,10.5,��
2020/03/11,06:30,0.678,0.958,0.650,1.175,0.824,0.399,0.683,0.654,��,10.9,��
2020/03/11,06:40,0.680,0.956,0.648,1.176,0.825,0.400,0.684,0.654,��,11.3,��
2020/03/11,06:50,0.677,0.960,0.649,1.176,0.827,0.397,0.687,0.655,���k��,6.2,��
2020/03/11,07:00,0.680,0.960,0.647,1.179,0.827,0.398,0.685,0.654,���k��,4.6,��
2020/03/11,07:10,0.679,0.959,0.648,1.179,0.825,0.397,0.684,0.653,�k��,7.1,��
2020/03/11,07:20,0.679,0.961,0.650,1.176,0.828,0.400,0.685,0.654,�k�k��,4.3,��
2020/03/11,07:30,0.679,0.959,0.647,1.178,0.826,0.398,0.687,0.654,�k�k��,7.3,��
2020/03/11,07:40,0.681,0.958,0.648,1.178,0.826,0.398,0.687,0.655,�k�k��,5.9,��
2020/03/11,07:50,0.681,0.960,0.648,1.177,0.826,0.399,0.688,0.654,�k�k��,6.6,��
2020/03/11,08:00,0.680,0.961,0.650,1.179,0.825,0.399,0.688,0.654,�k��,9.1,��
2020/03/11,08:10,0.680,0.959,0.649,1.178,0.825,0.398,0.686,0.655,�k��,8.8,��
2020/03/11,08:20,0.681,0.960,0.649,1.179,0.826,0.397,0.689,0.655,�k��,8.1,��
2020/03/11,08:30,0.680,0.959,0.649,1.182,0.824,0.398,0.685,0.655,���k��,6.8,��
2020/03/11,08:40,0.682,0.961,0.649,1.179,0.826,0.398,0.688,0.655,��,4.4,��
2020/03/11,08:50,0.683,0.963,0.650,1.180,0.827,0.399,0.686,0.656,�k��,6.6,��
2020/03/11,09:00,0.681,0.960,0.650,1.180,0.828,0.395,0.687,0.657,��,6.3,��
2020/03/11,09:10,0.681,0.962,0.651,1.180,0.827,0.398,0.689,0.655,���k��,6.8,��
2020/03/11,09:20,0.682,0.961,0.652,1.180,0.830,0.397,0.686,0.656,���k��,11.9,��
2020/03/11,09:30,0.681,0.963,0.651,1.183,0.829,0.398,0.687,0.654,��,7.9,��
2020/03/11,09:40,0.680,0.964,0.654,1.180,0.828,0.397,0.688,0.655,��,8.3,��
2020/03/11,09:50,0.680,0.965,0.652,1.184,0.831,0.398,0.690,0.653,��,9.6,��
2020/03/11,10:00,0.680,0.963,0.652,1.184,0.829,0.398,0.687,0.652,��,6.9,��
2020/03/11,10:10,0.682,0.964,0.652,1.184,0.829,0.398,0.690,0.652,���쐼,6.5,��
2020/03/11,10:20,0.683,0.964,0.651,1.185,0.827,0.396,0.689,0.654,��,7.8,��
2020/03/11,10:30,0.683,0.964,0.652,1.184,0.829,0.396,0.688,0.654,��,7.2,��
2020/03/11,10:40,0.682,0.966,0.654,1.184,0.831,0.396,0.689,0.652,��,7.8,��
2020/03/11,10:50,0.683,0.965,0.652,1.184,0.830,0.396,0.688,0.654,��,6.4,��
2020/03/11,11:00,0.683,0.965,0.652,1.185,0.833,0.397,0.689,0.654,��,6.5,��
2020/03/11,11:10,0.682,0.965,0.653,1.186,0.833,0.396,0.689,0.652,��,5.5,��
2020/03/11,11:20,0.684,0.967,0.652,1.183,0.833,0.397,0.689,0.653,��,6.7,��
2020/03/11,11:30,0.681,0.968,0.654,1.184,0.832,0.398,0.690,0.652,��,8.8,��
2020/03/11,11:40,0.683,0.968,0.654,1.187,0.835,0.399,0.688,0.653,��,9.1,��
2020/03/11,11:50,0.684,0.969,0.651,1.186,0.834,0.399,0.689,0.653,��,8.6,��
2020/03/11,12:00,0.683,0.968,0.654,1.188,0.834,0.398,0.689,0.655,��,10.6,��
2020/03/11,12:10,0.684,0.970,0.653,1.186,0.834,0.398,0.688,0.653,��,8.5,��
2020/03/11,12:20,0.682,0.968,0.654,1.186,0.837,0.397,0.689,0.654,��,8.7,��
2020/03/11,12:30,0.685,0.970,0.652,1.185,0.836,0.398,0.689,0.653,��,12.1,��
2020/03/11,12:40,0.685,0.972,0.653,1.189,0.836,0.398,0.690,0.653,��,10.0,��
2020/03/11,12:50,0.686,0.969,0.654,1.189,0.835,0.399,0.692,0.655,��,11.1,��
2020/03/11,13:00,0.684,0.973,0.653,1.188,0.838,0.400,0.689,0.657,��,10.5,��
2020/03/11,13:10,0.685,0.972,0.654,1.188,0.836,0.399,0.690,0.655,��,13.6,��
2020/03/11,13:20,0.684,0.972,0.654,1.188,0.839,0.400,0.689,0.654,���k��,13.5,��
2020/03/11,13:30,0.685,0.971,0.654,1.189,0.840,0.400,0.690,0.656,��,10.2,��
2020/03/11,13:40,0.684,0.972,0.655,1.189,0.839,0.399,0.690,0.656,��,11.4,��
2020/03/11,13:50,0.684,0.971,0.654,1.192,0.837,0.399,0.691,0.655,��,10.2,��
2020/03/11,14:00,0.685,0.974,0.655,1.191,0.837,0.400,0.691,0.654,���k��,8.3,��
2020/03/11,14:10,0.688,0.974,0.656,1.191,0.839,0.399,0.691,0.656,��,7.2,��
2020/03/11,14:20,0.687,0.971,0.656,1.191,0.840,0.400,0.691,0.655,��,9.1,��
2020/03/11,14:30,0.686,0.976,0.655,1.191,0.840,0.399,0.692,0.655,��,8.1,��
2020/03/11,14:40,0.688,0.974,0.655,1.193,0.840,0.399,0.691,0.655,��,9.0,��
2020/03/11,14:50,0.687,0.975,0.656,1.192,0.841,0.399,0.691,0.654,��,7.8,��
2020/03/11,15:00,0.685,0.974,0.656,1.192,0.841,0.400,0.690,0.655,���쐼,5.9,��
2020/03/11,15:10,0.685,0.976,0.654,1.192,0.841,0.400,0.692,0.655,��,7.1,��
2020/03/11,15:20,0.686,0.976,0.657,1.192,0.842,0.400,0.691,0.656,��,9.1,��
2020/03/11,15:30,0.688,0.976,0.657,1.194,0.844,0.399,0.690,0.654,��,8.2,��
2020/03/11,15:40,0.686,0.975,0.657,1.193,0.840,0.399,0.690,0.654,��,7.9,��
2020/03/11,15:50,0.687,0.976,0.656,1.194,0.841,0.400,0.691,0.654,��,4.5,��
2020/03/11,16:00,0.685,0.976,0.657,1.192,0.843,0.401,0.691,0.655,��,6.6,��
2020/03/11,16:10,0.686,0.977,0.656,1.194,0.841,0.402,0.691,0.656,��,9.5,��
2020/03/11,16:20,0.685,0.978,0.657,1.193,0.841,0.399,0.689,0.655,���k��,8.8,��
2020/03/11,16:30,0.687,0.978,0.657,1.195,0.842,0.401,0.690,0.653,��,10.2,��
2020/03/11,16:40,0.686,0.978,0.657,1.194,0.842,0.401,0.691,0.655,���쐼,8.6,��
2020/03/11,16:50,0.686,0.974,0.656,1.195,0.842,0.401,0.690,0.657,���k��,10.2,��
2020/03/11,17:00,0.686,0.977,0.656,1.196,0.843,0.401,0.691,0.655,���k��,10.5,��
2020/03/11,17:10,0.685,0.978,0.658,1.195,0.842,0.400,0.690,0.656,��,11.7,��
2020/03/11,17:20,0.685,0.978,0.656,1.194,0.841,0.401,0.689,0.654,��,10.8,��
2020/03/11,17:30,0.686,0.980,0.658,1.192,0.840,0.401,0.689,0.656,���k��,10.5,��
2020/03/11,17:40,0.686,0.979,0.659,1.195,0.843,0.401,0.690,0.657,���k��,7.8,��
2020/03/11,17:50,0.686,0.980,0.658,1.194,0.843,0.401,0.687,0.656,���k��,7.2,��
2020/03/11,18:00,0.686,0.980,0.660,1.196,0.843,0.401,0.691,0.657,���k��,10.2,��
2020/03/11,18:10,0.688,0.981,0.658,1.197,0.844,0.401,0.690,0.659,���k��,7.2,��
2020/03/11,18:20,0.687,0.981,0.659,1.196,0.849,0.400,0.691,0.659,�k��,10.5,��
2020/03/11,18:30,0.686,0.983,0.661,1.196,0.844,0.401,0.692,0.658,���k��,10.0,��
2020/03/11,18:40,0.687,0.982,0.659,1.195,0.845,0.400,0.691,0.657,���k��,7.4,��
2020/03/11,18:50,0.687,0.983,0.660,1.195,0.844,0.398,0.690,0.659,���k��,8.0,��
2020/03/11,19:00,0.687,0.982,0.661,1.196,0.846,0.399,0.689,0.657,���k��,8.6,��
2020/03/11,19:10,0.685,0.979,0.661,1.197,0.846,0.399,0.689,0.656,���k��,6.8,��
2020/03/11,19:20,0.687,0.980,0.661,1.196,0.845,0.399,0.690,0.658,���k��,9.7,��
2020/03/11,19:30,0.687,0.984,0.659,1.197,0.847,0.400,0.690,0.659,��,10.2,��
2020/03/11,19:40,0.688,0.983,0.659,1.196,0.843,0.399,0.689,0.658,���k��,10.2,��
2020/03/11,19:50,0.689,0.983,0.661,1.196,0.846,0.399,0.692,0.657,���k��,12.7,��
2020/03/11,20:00,0.687,0.982,0.660,1.199,0.846,0.400,0.691,0.659,���k��,9.9,��
2020/03/11,20:10,0.687,0.982,0.658,1.197,0.847,0.399,0.692,0.659,���k��,11.7,��
2020/03/11,20:20,0.687,0.981,0.659,1.200,0.847,0.399,0.692,0.659,��,12.8,��
2020/03/11,20:30,0.687,0.982,0.660,1.197,0.843,0.398,0.690,0.659,��,13.3,��
2020/03/11,20:40,0.686,0.982,0.661,1.199,0.847,0.400,0.690,0.657,��,11.3,��
2020/03/11,20:50,0.688,0.983,0.659,1.197,0.845,0.399,0.690,0.659,��,14.1,��
2020/03/11,21:00,0.685,0.982,0.659,1.196,0.847,0.400,0.690,0.657,��,12.1,��
2020/03/11,21:10,0.686,0.983,0.662,1.197,0.846,0.399,0.692,0.658,���k��,13.5,��
2020/03/11,21:20,0.687,0.981,0.659,1.197,0.845,0.399,0.689,0.657,���k��,16.8,��
2020/03/11,21:30,0.687,0.983,0.660,1.197,0.847,0.400,0.693,0.658,���k��,13.0,��
2020/03/11,21:40,0.687,0.983,0.660,1.197,0.848,0.399,0.692,0.659,���k��,9.8,��
2020/03/11,21:50,0.686,0.983,0.659,1.201,0.845,0.399,0.693,0.657,���k��,12.7,��
2020/03/11,22:00,0.686,0.982,0.660,1.198,0.847,0.399,0.691,0.658,�k��,12.7,��
2020/03/11,22:10,0.686,0.982,0.661,1.198,0.847,0.398,0.692,0.657,���k��,11.3,��
2020/03/11,22:20,0.686,0.982,0.660,1.198,0.849,0.399,0.693,0.658,�k��,8.3,��
2020/03/11,22:30,0.687,0.982,0.660,1.197,0.845,0.398,0.692,0.659,�k,6.9,��
2020/03/11,22:40,0.686,0.981,0.660,1.199,0.846,0.400,0.690,0.658,�k,6.8,��
2020/03/11,22:50,0.685,0.981,0.661,1.200,0.846,0.398,0.692,0.659,�k�k��,8.9,��
2020/03/11,23:00,0.686,0.982,0.661,1.198,0.848,0.398,0.691,0.657,�k,6.4,��
2020/03/11,23:10,0.686,0.980,0.660,1.196,0.847,0.398,0.692,0.656,�k,8.0,��
2020/03/11,23:20,0.686,0.980,0.659,1.197,0.847,0.397,0.693,0.659,�k�k��,5.3,��
2020/03/11,23:30,0.685,0.982,0.661,1.201,0.846,0.396,0.691,0.658,�k��,8.8,��
2020/03/11,23:40,0.685,0.981,0.659,1.197,0.847,0.398,0.692,0.657,���k��,6.9,��
2020/03/11,23:50,0.685,0.981,0.659,1.198,0.848,0.398,0.693,0.657,�k�k��,3.0,��
